Location: Ertinghausen
(51.6624°N, 9.7874°E)
Time: 21:40:13
(UTC+00:00)

Cosmos 2221 Rocket - Pass Details

Date: 14 August 2024
Orbit: 617 x 644 km, 82.5° (Epoch: 17 September)

Event Time Altitude Azimuth Distance (km) Brightness Sun altitude
Rises 02:36:01 0° 349° (N) 2,972 7.5 -12.3°
Reaches altitude 10° 02:38:17 10° 351° (N) 2,057 6.7 -12.0°
Maximum altitude 02:42:52 82° 79° (E) 659 3.7 -11.5°
Drops below altitude 10° 02:47:24 10° 168° (SSE) 2,034 5.9 -10.9°
Sets 02:49:38 0° 169° (S) 2,936 6.7 -10.7°
